User: anonymous   Login
Location: Unspecified
(0.0000°N, 0.0000°E)
Time: 07:55:55
(UTC+02:00)
Language:

ARIANE 5 R/B - Orbit

View from above orbital plane
View from above orbital plane
View from above satellite
View from above satellite

Ground track
Ground track

The orbit data is extracted from the following two-line orbital elements,

1 28379U 04027B   16209.52856885 -.00000430 +00000-0 +63960-3 0  9992
2 28379 007.1526 074.1008 7295764 221.3144 015.3114 02.07925215091366
Epoch (UTC): 27 July 2016 12:41:08
Eccentricity: 0.7295764
inclination: 7.1526°
perigee height: 634 km
apogee height: 38469 km
right ascension of ascending node: 74.1008°
argument of perigee: 221.3144°
revolutions per day: 2.07925215
mean anomaly at epoch: 15.3114°
orbit number at epoch: 9136

The dashed part of the orbit path shows where the satellite is in the earth's shadow,  

DLR